TimeEST,TemperatureF,Dew PointF,Humidity,Sea Level PressureIn,VisibilityMPH,Wind Direction,Wind SpeedMPH,Gust SpeedMPH,PrecipitationIn,Events,Conditions,WindDirDegrees,DateUTC
12:56 AM,25.0,8.1,49,30.21,10.0,WNW,11.5,-,N/A,,Clear,290,2013-02-02 05:56:00
1:56 AM,24.1,7.0,48,30.23,10.0,West,9.2,-,N/A,,Clear,280,2013-02-02 06:56:00
2:56 AM,24.1,8.1,51,30.24,10.0,West,9.2,-,N/A,,Clear,280,2013-02-02 07:56:00
3:56 AM,23.0,9.0,55,30.25,10.0,West,5.8,-,N/A,,Clear,270,2013-02-02 08:56:00
4:56 AM,21.0,10.0,63,30.27,10.0,West,5.8,-,N/A,,Mostly Cloudy,260,2013-02-02 09:56:00
5:56 AM,21.0,8.1,57,30.27,10.0,West,5.8,-,N/A,,Partly Cloudy,270,2013-02-02 10:56:00
6:56 AM,19.9,8.1,60,30.29,10.0,West,4.6,-,N/A,,Clear,260,2013-02-02 11:56:00
7:56 AM,21.9,9.0,58,30.31,10.0,WSW,6.9,-,N/A,,Clear,250,2013-02-02 12:56:00
8:56 AM,24.1,8.1,51,30.31,10.0,West,6.9,-,N/A,,Clear,260,2013-02-02 13:56:00
9:56 AM,26.1,8.1,47,30.29,10.0,West,5.8,-,N/A,,Clear,260,2013-02-02 14:56:00
10:56 AM,28.0,7.0,41,30.28,10.0,WSW,11.5,-,N/A,,Clear,240,2013-02-02 15:56:00
11:56 AM,28.0,12.0,51,30.25,10.0,South,10.4,17.3,N/A,,Clear,180,2013-02-02 16:56:00
12:56 PM,28.9,12.9,51,30.21,10.0,WSW,12.7,-,N/A,,Clear,240,2013-02-02 17:56:00
1:56 PM,28.9,10.9,47,30.18,10.0,WSW,15.0,21.9,N/A,,Partly Cloudy,250,2013-02-02 18:56:00
2:56 PM,30.0,12.0,47,30.15,10.0,SW,16.1,21.9,N/A,,Partly Cloudy,220,2013-02-02 19:56:00
3:56 PM,28.9,10.9,47,30.14,10.0,SW,10.4,20.7,N/A,,Mostly Cloudy,230,2013-02-02 20:56:00
4:56 PM,30.0,12.9,49,30.12,10.0,SSW,13.8,17.3,N/A,,Overcast,200,2013-02-02 21:56:00
5:56 PM,30.0,10.0,43,30.11,10.0,SW,4.6,-,N/A,,Overcast,230,2013-02-02 22:56:00
7:56 PM,30.0,12.0,47,30.09,10.0,WSW,6.9,-,N/A,,Overcast,240,2013-02-03 00:56:00
8:56 PM,30.0,14.0,51,30.09,10.0,WSW,8.1,-,N/A,,Overcast,240,2013-02-03 01:56:00
9:56 PM,27.0,19.0,72,30.11,4.0,West,11.5,-,0.00,Snow,Light Snow,260,2013-02-03 02:56:00
10:07 PM,26.6,19.4,74,30.10,3.0,West,9.2,-,0.00,Snow,Light Snow,270,2013-02-03 03:07:00
10:20 PM,26.6,19.4,74,30.10,2.5,West,12.7,-,0.00,Snow,Light Snow,260,2013-02-03 03:20:00
10:56 PM,25.0,21.0,85,30.10,2.5,WNW,6.9,-,0.00,Snow,Light Snow,290,2013-02-03 03:56:00
11:56 PM,25.0,21.0,85,30.09,3.0,NW,4.6,-,0.01,Snow,Light Snow,310,2013-02-03 04:56:00